Theta_e
292 292 292 292 293 293 293 293 293 293 293 293 293 293 293 293 293 293 293 293 293 293 293 293 293 293 293 293 293 293 293 293 293 293 293 293 293 293 293 293 293 293 293 293 293 293 293 293 293 293 293 293 293 293 293 293 293 293 293 293 293 293 293 293 293 293 293 293 293 293 293 294 294 294 294 294 294 294 294 295 295 295 296 296 297 297
292 292 292 292 292 293 293 293 292 292 293 293 293 293 293 293 293 293 293 293 293 293 293 293 293 293 293 293 293 293 293 293 293 293 293 293 293 293 293 293 293 293 293 293 293 293 293 293 293 293 293 293 293 293 293 293 293 293 292 292 292 292 292 292 293 293 293 293 293 293 293 293 293 293 293 294 294 294 294 295 295 295 296 297 297 297
291 292 292 292 292 292 293 292 292 292 292 292 292 293 293 293 293 293 293 293 293 293 293 293 293 293 293 293 293 293 293 293 293 293 293 293 293 293 293 293 293 293 293 293 293 293 293 293 293 293 293 293 293 293 293 293 293 292 292 292 292 292 292 292 292 292 292 292 292 293 293 293 293 293 293 293 294 294 294 294 295 295 296 296 297 297
291 291 292 292 292 292 292 292 292 292 292 292 292 292 292 292 292 292 292 292 292 292 292 292 292 292 293 293 293 293 293 293 293 293 293 293 293 293 293 293 293 293 293 293 293 293 293 293 293 293 293 293 293 293 293 293 292 292 292 292 292 292 292 292 292 292 292 292 292 292 292 293 293 293 293 293 293 293 294 294 294 295 295 296 297 297
290 291 291 291 292 292 292 292 292 292 292 292 292 292 292 292 292 292 292 292 292 292 292 292 292 292 292 292 292 292 292 292 292 292 292 292 292 292 293 293 293 293 293 293 293 293 293 293 293 293 293 293 293 293 292 292 292 292 292 292 292 292 292 292 292 292 292 292 292 292 292 292 292 293 293 293 293 293 293 293 294 294 294 295 296 297
290 290 290 290 291 291 291 291 291 291 291 291 291 291 291 291 291 291 292 292 292 292 292 292 292 292 292 292 292 292 292 292 292 292 292 292 292 292 292 292 292 293 293 293 293 293 293 293 293 293 293 293 293 293 292 292 292 292 292 292 292 292 292 292 292 292 292 292 292 292 292 292 293 293 293 293 293 293 293 293 293 293 294 294 295 296
289 289 289 290 290 290 291 291 291 290 291 291 291 291 291 291 291 291 291 291 291 291 291 291 291 291 291 291 291 291 291 291 291 292 292 292 292 292 292 292 292 292 292 292 292 292 292 293 293 293 293 293 293 292 292 292 292 292 292 292 292 292 292 292 292 292 292 292 292 292 292 292 293 293 293 293 293 293 293 293 293 293 293 294 294 295
289 289 289 289 290 290 290 290 290 290 290 290 290 290 290 290 290 290 290 290 290 290 290 290 290 290 290 290 291 291 291 291 291 291 291 291 292 292 292 292 292 292 292 292 292 292 292 292 293 292 292 292 292 292 292 292 292 292 292 292 292 292 292 292 292 292 292 292 292 292 292 292 292 293 293 293 293 293 293 293 293 293 293 293 294 294
288 289 289 289 289 289 290 290 290 289 289 289 289 289 290 290 290 290 290 290 290 289 289 290 290 290 290 290 290 290 290 290 291 291 291 291 291 291 291 291 292 292 292 292 292 292 292 292 292 292 292 292 292 292 292 292 292 292 292 292 292 292 292 292 292 292 292 292 292 292 292 292 292 292 292 292 292 293 293 292 293 293 293 293 293 294
288 288 288 288 288 288 289 289 289 289 289 289 289 289 289 289 289 289 289 289 289 289 289 289 289 289 290 290 290 290 290 290 290 290 290 291 291 291 291 291 291 291 291 292 292 292 292 292 292 292 292 292 292 292 292 292 292 292 292 292 292 292 292 292 292 292 292 292 292 292 292 292 292 292 292 292 292 292 292 292 292 292 292 293 293 293
287 287 288 288 288 288 288 288 289 289 289 289 289 288 288 288 288 288 289 289 289 289 288 288 288 289 289 289 290 290 290 290 290 290 290 290 290 291 291 291 291 291 291 291 291 291 292 292 292 292 292 292 292 292 292 292 292 292 292 292 291 291 291 291 291 292 292 292 292 292 292 292 292 292 292 292 292 292 292 292 292 292 292 292 293 293
287 287 287 288 288 288 288 288 288 288 288 288 288 288 288 288 288 287 288 288 288 288 288 288 288 288 288 289 289 289 289 290 290 290 290 290 290 290 290 290 290 290 291 291 291 291 291 291 291 291 291 291 291 291 291 291 291 291 291 291 291 291 291 291 291 291 291 291 291 291 292 292 292 292 292 292 292 292 292 292 292 292 292 292 293 293
287 287 287 287 287 288 288 288 288 288 288 287 288 288 288 288 287 287 287 287 287 287 287 287 288 288 288 288 288 289 289 289 289 289 289 289 289 289 289 290 290 290 290 290 290 291 291 291 291 291 291 291 291 291 291 291 291 291 291 291 291 291 291 291 291 291 291 291 291 291 291 291 291 292 292 292 292 292 292 292 292 292 292 292 292 292
287 287 287 287 287 287 287 287 287 287 287 287 287 287 287 287 287 287 287 287 287 287 286 287 287 287 288 288 288 288 288 288 289 289 289 289 289 289 289 289 289 289 289 289 290 290 290 290 290 290 291 291 291 291 291 290 290 290 290 290 290 290 290 290 290 290 291 291 291 291 291 291 291 291 291 291 291 292 292 292 292 292 292 292 292 292
286 286 287 287 287 287 287 287 287 287 287 287 287 287 287 287 286 286 286 286 286 286 286 286 286 287 287 287 288 288 288 288 288 288 288 288 288 288 288 289 289 289 289 289 289 290 290 290 290 290 290 290 290 290 290 290 290 290 290 290 290 290 290 290 290 290 290 290 290 290 290 291 291 291 291 291 291 291 291 291 291 291 292 292 292 292
286 286 287 287 287 287 287 287 287 287 287 287 286 286 286 286 286 286 285 285 285 286 286 286 286 286 287 287 287 287 287 287 287 287 288 288 288 288 288 288 288 289 289 289 289 289 289 289 289 289 289 289 289 289 289 289 289 289 289 289 289 289 289 289 289 289 289 289 289 290 290 290 290 290 290 290 290 290 290 291 291 291 291 291 291 291
286 286 287 287 287 287 287 287 287 286 286 286 286 286 286 285 285 285 285 285 285 285 285 286 286 286 286 287 287 287 287 287 287 287 287 287 288 288 288 288 288 288 288 288 288 289 289 289 289 289 289 289 289 289 288 288 288 289 289 289 289 289 289 289 289 289 289 289 289 289 289 290 290 290 290 290 290 290 290 290 290 290 290 291 291 291
286 286 286 287 287 287 286 286 286 286 286 286 286 285 285 285 285 285 285 285 285 285 285 286 286 286 286 286 287 287 287 287 286 286 287 287 287 288 288 287 287 288 288 288 288 288 288 288 288 288 288 288 288 288 288 288 288 288 288 288 288 288 289 289 289 289 289 289 289 289 289 289 289 289 289 289 289 289 290 290 290 290 290 290 290 291
286 286 286 286 286 286 286 286 286 286 286 285 285 285 285 285 285 285 285 285 285 285 286 286 286 286 286 286 287 287 287 286 286 286 286 286 287 287 287 287 287 287 287 288 288 288 288 288 288 288 288 287 287 287 287 287 288 288 288 288 288 288 288 288 288 288 288 288 288 288 289 289 289 289 289 289 289 289 289 289 289 289 290 290 290 290
286 286 286 286 286 286 286 286 286 286 285 285 284 284 284 285 285 285 285 285 285 286 286 286 286 286 286 286 286 286 286 286 286 285 286 286 286 287 287 287 287 287 287 287 287 287 287 287 287 287 287 287 287 287 287 287 287 287 287 287 287 287 288 288 288 288 288 288 288 288 288 288 288 288 289 289 289 289 289 289 289 289 289 290 290 290
286 286 286 286 286 285 285 286 286 285 285 284 284 284 285 285 285 285 285 286 286 286 286 286 286 286 286 286 286 286 285 285 285 285 285 285 286 286 287 286 286 286 286 287 287 287 287 287 287 287 287 287 287 287 287 287 287 287 287 287 287 287 287 287 287 287 288 288 288 288 288 288 288 288 288 288 288 288 289 289 289 289 289 289 289 290
286 286 286 286 285 285 285 285 285 285 285 285 285 285 285 285 285 286 286 286 286 286 286 286 286 285 285 285 285 285 285 285 285 285 284 285 285 286 286 286 286 286 286 286 287 287 286 286 286 286 286 286 286 286 286 286 286 286 286 287 287 287 287 287 287 287 287 287 287 287 288 288 288 288 288 288 288 288 288 288 288 289 289 289 289 289
285 286 286 286 285 285 285 285 285 285 285 285 285 285 285 286 286 286 286 286 285 285 285 285 285 285 285 284 285 285 285 285 284 284 284 285 286 286 286 286 286 286 286 286 286 286 286 286 286 286 286 286 286 286 286 286 286 286 286 286 286 286 287 287 287 287 287 287 287 287 287 287 287 288 288 288 288 288 288 288 288 288 288 288 289 289
285 285 285 285 285 285 285 285 285 285 285 285 285 285 285 286 286 286 285 285 285 284 284 284 284 284 284 284 284 284 285 285 284 284 284 285 285 286 286 285 285 285 286 286 286 286 286 285 285 285 285 285 286 286 286 286 286 286 286 286 286 286 286 286 286 286 286 287 287 287 287 287 287 287 287 287 288 288 288 288 288 288 288 288 288 289
285 285 285 285 285 285 285 285 285 285 285 285 285 285 285 285 285 284 284 284 284 284 284 284 284 283 283 284 284 284 284 284 284 284 284 284 285 285 285 285 285 285 286 286 285 285 285 285 285 285 285 285 285 285 285 285 285 286 286 286 286 286 286 286 286 286 286 286 287 287 287 287 287 287 287 287 287 288 288 288 288 288 288 288 288 288
285 285 285 285 285 285 285 285 285 285 286 285 285 285 284 284 284 284 284 284 284 283 283 283 283 283 283 283 283 284 284 284 284 284 284 284 284 284 285 285 285 285 285 285 285 285 285 285 285 285 285 285 285 285 285 285 285 285 285 285 285 286 286 286 286 286 286 286 286 287 287 287 287 287 287 287 287 287 287 287 287 287 288 288 288 288
285 285 285 285 285 285 285 285 285 285 285 285 284 284 284 284 284 284 284 283 283 283 282 282 282 282 283 283 283 283 284 284 284 284 283 283 284 284 285 285 285 284 284 284 285 285 285 285 285 285 285 285 285 285 285 285 285 285 285 285 285 285 285 286 286 286 286 286 286 286 286 286 286 286 286 287 287 287 287 287 287 287 287 287 287 287
285 286 285 285 285 285 285 285 285 285 285 284 284 284 283 283 283 283 283 283 283 283 282 282 282 282 282 282 283 283 283 283 283 284 283 283 284 284 284 284 284 284 284 284 284 284 284 284 284 285 285 285 285 285 285 285 285 285 285 285 285 285 285 285 285 285 285 285 285 285 286 286 286 286 286 286 286 286 286 286 287 287 287 287 287 287
286 285 285 285 285 285 285 285 285 285 285 285 284 284 284 284 283 283 283 283 283 282 282 282 282 282 282 282 282 282 283 283 284 284 283 283 284 284 284 284 284 284 284 284 284 284 284 284 284 284 285 285 285 285 285 284 284 284 284 284 284 284 284 284 285 285 285 285 285 285 285 285 285 286 286 286 286 286 286 286 286 286 287 287 287 287
285 285 285 285 285 285 285 285 285 285 285 285 285 284 284 284 284 284 283 283 282 282 282 282 282 282 282 282 282 282 283 284 284 284 283 283 283 283 284 283 283 283 283 283 283 283 284 284 284 284 284 284 284 284 284 284 284 284 284 284 284 284 284 284 284 284 284 285 285 285 285 285 285 285 286 286 286 286 286 286 286 286 287 287 287 287
285 285 285 286 286 285 285 285 285 285 285 285 285 285 285 284 284 284 283 283 282 282 281 281 281 281 282 282 282 282 283 283 284 283 283 283 283 283 283 283 283 283 283 283 283 283 283 284 284 284 284 284 284 284 284 284 284 284 284 284 284 284 284 284 284 284 284 284 285 285 285 285 285 285 285 285 286 286 286 286 286 286 286 287 287 287
285 285 285 286 286 286 286 286 286 286 286 286 285 285 285 284 284 284 283 282 282 281 281 281 281 281 281 281 282 282 282 283 283 283 282 282 282 282 283 283 283 283 283 283 283 283 283 283 283 284 284 283 284 284 284 284 284 284 284 284 284 284 284 284 284 284 284 284 284 284 285 285 285 285 285 285 285 285 286 286 286 286 286 286 286 286
285 285 286 286 286 286 286 286 286 286 286 286 286 285 285 284 284 283 283 282 281 281 281 281 281 281 281 281 281 281 282 282 283 283 283 282 282 282 282 282 282 282 282 282 283 283 283 283 283 283 283 283 284 284 284 284 284 284 284 284 284 284 284 284 284 284 284 284 284 284 284 284 285 285 285 285 285 285 285 285 286 286 286 286 286 286
285 285 286 286 286 286 286 286 286 286 286 286 286 285 285 284 284 283 283 282 282 281 281 281 281 281 281 281 281 281 282 283 283 283 283 282 282 282 282 282 282 282 282 282 282 283 283 283 283 283 283 283 284 284 284 284 284 284 284 284 284 284 284 284 284 284 284 284 284 284 284 284 284 284 284 285 285 285 285 285 285 285 286 286 286 286
285 285 286 286 286 286 286 286 286 286 286 286 285 285 285 284 284 284 283 283 282 282 281 281 281 281 280 280 281 281 282 283 284 283 282 282 282 281 282 282 282 282 282 282 282 283 283 283 283 283 283 283 283 283 283 284 284 284 284 284 284 284 284 284 284 284 284 284 284 284 284 284 284 284 284 284 284 284 285 285 285 285 285 285 286 286
285 285 286 286 286 286 286 286 286 286 286 285 285 285 284 284 284 284 283 283 283 282 282 282 281 281 281 281 281 281 282 283 283 283 282 282 281 281 281 281 282 282 282 282 282 282 282 283 283 283 283 283 283 283 283 283 284 284 284 284 284 284 284 284 284 284 284 284 284 284 284 284 284 284 284 284 284 284 284 285 285 285 285 285 285 286
285 285 286 286 286 286 286 286 286 285 285 285 284 284 284 284 284 284 284 284 283 283 283 282 282 282 281 281 281 281 282 282 283 283 283 282 282 281 281 282 282 282 282 282 282 282 282 283 283 283 283 283 283 283 283 283 283 283 283 284 284 284 284 284 284 284 284 284 284 284 284 284 284 284 284 284 284 284 284 284 284 285 285 285 285 285
285 285 286 286 286 286 286 286 285 285 284 284 284 284 284 284 284 284 284 284 283 283 283 282 282 282 282 282 281 281 282 282 282 283 283 282 282 281 282 282 282 282 282 282 282 282 282 282 283 283 283 283 283 283 283 283 283 283 283 283 283 284 284 284 284 284 284 284 284 284 284 284 284 284 284 284 284 284 284 284 284 284 284 284 285 285
285 286 286 286 286 285 285 285 285 284 284 284 284 284 284 284 284 284 284 283 283 282 282 282 282 282 282 281 281 281 282 282 282 282 282 282 282 282 282 282 282 282 282 282 282 282 282 282 282 282 283 283 283 283 283 283 283 283 283 283 283 284 284 284 284 284 284 284 284 284 284 284 284 284 284 284 284 284 284 284 284 284 284 284 284 284
286 286 286 286 285 285 285 284 284 284 284 284 284 284 284 284 284 284 283 282 282 282 281 281 281 281 281 281 281 281 282 282 282 282 282 282 282 282 282 282 282 282 282 282 282 282 282 282 282 282 282 283 283 283 283 283 283 283 283 284 284 284 284 284 284 284 284 284 284 284 284 284 283 283 283 283 283 283 283 283 284 284 284 284 284 284
286 286 286 286 285 285 285 284 284 284 284 284 284 284 284 284 283 282 282 282 282 281 281 281 281 281 281 281 281 281 282 282 282 282 282 282 282 282 282 282 282 282 282 282 282 282 282 282 282 282 282 283 283 283 283 283 283 283 283 284 284 284 284 284 284 284 284 283 283 283 283 283 283 283 283 283 283 283 283 283 283 283 283 284 284 284
285 286 286 286 285 285 285 284 284 284 284 283 283 283 283 283 282 281 281 281 281 281 281 280 280 280 280 281 281 281 282 282 282 282 282 282 282 282 282 282 282 282 282 282 282 282 282 282 283 283 283 283 283 283 283 283 283 283 283 284 284 284 283 283 283 283 283 283 283 283 283 283 283 283 283 283 283 283 283 283 283 283 284 284 284 284
285 286 286 285 285 285 284 284 284 283 283 283 283 283 283 282 282 281 280 280 280 280 280 280 280 280 280 281 281 282 282 282 282 282 282 282 282 282 282 282 282 282 282 282 282 282 282 283 283 283 283 283 283 283 283 283 283 283 283 283 283 283 283 283 283 283 283 283 283 283 283 283 283 283 283 283 283 283 283 283 283 283 284 284 284 284
286 286 286 285 284 284 284 284 283 283 283 283 283 283 282 282 281 281 280 279 280 280 280 280 280 280 280 281 281 281 281 281 281 282 282 282 282 282 282 282 283 283 283 283 283 283 283 283 283 283 283 283 283 283 283 283 283 283 283 283 283 283 283 283 282 282 282 282 282 282 282 282 282 282 283 283 283 283 283 283 283 283 283 283 284 284
286 286 285 285 284 284 284 284 283 283 283 283 283 282 282 282 281 280 280 279 279 279 279 280 280 280 280 281 281 281 281 281 282 282 282 282 282 282 283 283 283 283 283 283 283 283 283 283 283 283 283 283 283 283 283 283 283 282 282 282 282 282 282 282 282 282 282 282 282 282 282 282 282 282 282 282 282 283 283 283 283 283 283 283 283 284
286 286 285 285 284 284 284 284 283 283 283 283 282 282 282 281 281 280 280 279 279 279 280 280 280 280 281 281 281 281 281 281 282 282 282 282 282 282 283 283 283 283 283 283 283 283 283 283 283 283 282 282 282 282 282 282 282 282 282 282 282 282 282 282 282 282 282 282 282 282 282 282 282 282 282 282 282 282 282 283 283 283 283 283 283 284
285 285 285 284 284 284 284 283 283 282 282 282 282 282 281 281 280 280 279 279 279 279 280 280 280 280 280 281 281 281 281 281 282 282 282 282 282 283 283 283 283 283 283 283 283 283 283 282 282 282 282 282 282 281 281 281 281 282 282 282 282 282 282 282 282 282 282 282 282 282 282 282 282 282 282 282 282 282 283 283 283 283 283 283 283 284
285 284 284 284 283 283 283 283 282 282 281 281 281 281 281 280 280 279 279 279 279 280 280 280 280 280 280 281 281 281 281 282 282 282 282 282 282 282 283 283 283 283 283 283 282 282 282 282 282 281 281 281 281 281 281 281 281 281 281 281 281 281 281 282 282 282 282 282 282 282 282 282 282 282 282 282 282 283 283 283 283 283 283 283 284 284
285 284 284 283 283 283 282 282 281 281 280 280 280 280 280 280 280 279 279 279 279 280 280 280 280 280 281 281 281 281 281 281 282 282 282 282 282 282 283 283 283 283 282 282 282 282 281 281 281 281 281 281 281 281 281 281 281 281 281 281 281 281 281 282 282 282 282 282 282 282 282 282 282 282 282 283 283 283 283 283 283 283 284 284 284 284
284 284 283 283 282 282 282 281 281 280 280 280 280 280 279 279 279 279 279 279 279 280 280 280 280 280 280 281 281 281 281 282 282 282 282 282 282 282 283 282 282 282 282 282 281 281 281 281 281 281 281 281 281 281 281 281 281 281 281 282 282 282 282 282 282 282 282 282 282 282 282 282 282 282 283 283 283 283 283 283 283 284 284 284 284 284
284 284 283 283 282 281 281 281 280 280 280 279 279 279 279 279 279 279 279 279 280 280 280 280 280 280 281 281 281 281 282 282 282 282 282 282 282 282 282 282 282 282 282 281 281 281 281 281 281 281 281 281 281 281 281 282 282 282 282 282 282 282 282 282 282 282 282 282 282 282 282 282 283 283 283 283 283 283 283 283 284 284 284 284 285 285
Wind_Speed
23 23 22 22 22 21 21 20 20 20 20 20 19 19 19 19 18 18 18 18 18 18 18 18 18 18 17 17 17 17 18 18 18 19 19 20 20 21 21 21 22 22 23 23 23 24 24 25 25 25 26 26 27 27 28 28 28 29 29 29 29 30 30 30 30 29 29 29 29 29 29 29 29 29 29 29 29 29 29 29 29 29 29 28 28 29
23 23 22 21 21 21 20 20 20 20 20 20 20 20 20 19 19 19 18 18 18 19 19 19 18 18 18 18 18 18 18 18 18 19 19 20 20 20 21 21 22 22 22 22 23 23 23 24 24 25 25 26 26 27 27 28 28 29 29 29 30 30 30 31 31 31 31 31 31 31 30 30 30 30 29 29 29 29 29 29 29 29 29 28 28 28
23 23 22 22 21 21 21 21 21 20 20 20 20 20 20 20 20 20 20 20 20 20 20 20 20 20 20 19 19 19 20 20 20 20 20 21 21 22 22 22 22 22 22 22 22 22 23 23 23 24 25 25 26 26 27 28 28 29 29 30 30 30 31 31 31 32 32 32 32 32 31 31 30 30 29 29 29 29 29 29 29 29 28 28 28 28
23 23 23 22 22 22 21 21 21 21 21 21 21 21 21 21 21 21 21 21 21 21 22 22 22 22 22 22 22 22 22 22 22 22 23 23 23 23 23 23 23 22 22 22 22 22 23 23 24 24 25 25 26 27 27 28 28 29 29 30 30 30 31 31 31 32 32 32 32 32 31 31 31 30 30 29 29 29 28 29 28 28 28 28 28 28
22 23 23 23 23 23 22 22 22 22 22 22 22 22 22 23 23 23 23 23 23 23 23 24 24 24 25 25 25 25 25 25 25 25 25 25 25 25 24 24 23 23 23 23 24 24 24 25 25 26 26 27 27 27 28 28 29 29 29 29 30 30 30 30 31 31 31 31 31 31 31 30 30 30 29 29 29 29 29 28 28 28 28 28 28 28
23 23 23 24 24 24 24 23 23 23 23 23 23 23 24 24 24 24 24 24 25 25 26 26 26 27 27 27 27 27 27 27 27 27 27 27 26 26 26 25 25 25 25 26 26 27 27 27 27 28 28 28 28 28 29 29 29 29 29 29 29 29 29 29 29 29 29 29 29 29 29 29 29 29 29 29 29 29 29 29 29 28 28 29 29 28
23 23 23 24 24 25 24 24 23 23 24 24 25 25 25 25 25 25 26 26 27 27 28 28 28 29 29 29 29 29 29 29 29 29 29 28 28 27 27 27 27 28 28 29 29 29 29 29 29 29 30 30 30 30 30 30 29 29 29 29 29 29 29 29 29 28 28 28 28 28 28 28 29 29 29 29 29 29 29 29 29 29 29 29 29 29
24 24 24 24 25 25 25 24 23 23 23 25 26 27 27 27 27 27 27 28 28 29 29 30 30 30 30 30 30 31 31 31 31 30 30 29 29 29 29 29 30 30 31 31 31 31 31 31 31 31 31 31 31 31 31 30 30 30 30 30 29 29 29 29 28 28 28 28 28 28 28 28 28 28 28 29 29 29 29 29 29 29 29 29 29 29
24 24 24 24 24 25 25 25 24 23 23 24 25 27 28 29 29 29 29 29 29 29 30 31 31 32 31 31 31 32 32 32 31 31 30 30 30 30 31 31 32 33 33 33 33 33 33 33 33 33 33 33 32 32 32 31 31 31 31 30 30 30 29 29 29 28 28 28 28 28 28 28 28 28 29 29 29 29 30 30 30 30 30 30 30 30
23 24 25 24 24 24 24 25 25 24 23 24 25 25 26 27 29 30 31 31 30 29 30 31 32 33 33 33 32 32 32 32 31 30 30 30 31 32 33 34 35 35 35 35 35 35 35 35 35 35 35 34 34 33 33 32 32 32 31 31 31 30 30 30 29 29 29 29 29 29 29 29 29 29 29 29 29 30 30 30 30 30 30 31 30 30
23 23 24 24 24 24 24 25 25 25 25 25 25 25 25 24 25 28 31 32 32 31 31 31 32 33 34 34 34 33 33 32 32 31 31 32 33 34 35 36 37 37 37 38 38 37 37 37 37 37 36 36 35 35 34 34 33 33 33 32 32 32 31 31 31 30 30 30 30 30 29 29 29 29 29 29 29 29 30 30 30 31 31 31 31 31
22 23 23 24 24 24 24 25 25 25 25 25 25 24 23 23 24 25 28 31 32 33 33 33 33 33 33 34 34 34 33 33 33 33 34 34 36 37 37 38 39 39 39 39 40 39 39 39 38 38 37 37 36 36 36 35 35 35 34 34 34 34 33 33 33 32 32 32 32 31 31 31 31 30 30 30 30 30 30 30 30 31 31 31 31 31
22 22 23 24 24 24 24 25 25 24 23 23 23 23 24 25 25 26 27 29 31 32 33 34 34 34 33 33 32 32 32 33 33 34 35 36 37 38 38 39 40 40 40 41 41 41 40 40 39 39 38 38 38 37 37 37 37 37 36 36 36 36 36 35 35 35 34 34 34 34 33 33 33 33 32 32 32 31 31 31 31 31 32 32 32 32
22 22 23 23 23 23 23 23 23 23 23 22 22 23 25 27 28 28 29 30 31 31 32 32 33 34 33 32 31 30 31 32 33 35 36 37 37 38 38 39 40 40 40 41 41 41 40 40 40 40 39 39 39 39 38 38 38 38 38 38 38 38 37 37 37 36 36 36 36 35 35 35 35 35 34 34 34 34 33 33 33 33 33 33 33 33
22 22 23 23 23 23 22 22 22 23 23 23 24 25 27 28 28 29 29 31 31 32 31 32 33 33 32 30 28 29 29 31 33 35 37 38 38 38 38 39 40 41 40 40 40 40 40 39 39 40 40 40 40 39 39 39 39 39 39 39 39 38 38 38 37 37 37 37 36 36 36 36 36 35 35 35 35 35 35 35 35 35 35 35 35 35
21 21 22 23 23 23 22 22 23 24 25 26 26 27 28 28 29 29 29 30 30 30 30 31 32 33 32 30 28 27 27 30 32 35 37 38 39 38 37 38 39 41 40 39 39 39 39 39 39 39 40 40 40 40 40 40 40 40 39 39 39 38 38 38 38 38 37 37 37 37 37 36 36 36 35 35 35 35 36 36 36 36 36 36 36 36
21 21 21 22 23 24 24 24 25 26 27 27 27 27 26 27 27 27 28 29 30 29 29 28 29 30 31 31 30 28 27 29 32 35 37 39 39 39 37 37 38 39 40 39 39 39 39 39 39 39 39 40 40 39 39 39 39 39 39 39 39 39 38 38 38 38 38 37 37 37 37 36 36 36 36 36 36 36 37 37 37 37 37 37 37 37
22 22 22 23 25 26 27 27 27 27 27 27 27 27 26 26 27 27 27 28 28 29 29 28 28 29 30 31 31 30 29 30 33 36 38 40 41 40 38 37 37 38 39 39 38 38 38 38 39 39 39 39 39 39 39 39 39 39 39 39 39 39 38 38 38 38 37 37 37 37 37 37 37 37 37 37 37 37 37 37 37 37 37 37 37 37
23 23 24 25 27 28 28 28 28 27 27 27 26 27 27 28 28 27 28 28 28 28 28 28 29 29 30 30 31 32 32 33 35 37 39 42 43 42 38 36 36 37 38 38 38 38 38 39 39 40 40 40 40 40 40 40 39 39 39 38 38 38 38 38 38 38 37 37 37 37 37 37 37 37 37 37 37 37 37 37 37 37 37 37 37 37
23 24 24 25 26 27 28 27 26 25 25 26 26 27 29 29 29 28 28 28 28 29 29 29 30 31 31 33 34 35 35 36 37 38 40 42 42 40 37 35 35 37 38 39 39 39 39 39 40 40 40 40 40 40 39 39 39 38 38 38 38 38 38 38 38 38 38 37 37 37 37 37 37 37 37 37 37 37 37 37 37 37 38 38 38 38
23 24 24 24 25 26 27 26 25 24 24 25 26 28 29 30 30 30 29 29 29 30 30 30 31 31 32 34 36 38 37 37 37 38 39 40 40 38 36 34 34 36 38 39 40 39 39 39 40 40 40 40 40 39 39 38 38 38 38 38 38 38 38 38 38 38 37 37 37 37 37 37 38 38 38 38 38 38 38 38 38 38 38 38 38 38
23 24 24 23 24 25 26 26 25 25 24 25 26 28 29 30 31 31 31 31 32 32 32 32 33 35 36 37 39 40 37 34 33 34 36 38 39 38 36 33 34 36 39 40 40 40 39 39 40 40 40 39 39 39 38 38 38 38 38 37 37 37 37 37 37 37 37 37 37 38 38 38 38 38 38 38 38 38 38 38 39 39 39 39 39 39
23 24 24 24 23 24 25 25 25 25 25 25 26 27 28 29 30 32 32 33 34 35 36 37 38 39 38 39 38 36 33 31 29 30 32 34 37 38 36 34 35 37 39 40 40 39 39 39 40 40 39 39 39 38 38 38 37 37 37 37 37 37 37 37 37 37 37 37 37 38 38 38 38 38 39 39 39 39 39 39 39 39 39 39 39 39
23 24 24 24 23 24 24 25 25 25 25 25 26 27 28 29 30 32 33 34 36 37 39 40 41 40 36 34 33 32 30 28 27 28 29 32 36 38 37 35 35 37 39 40 39 39 39 40 40 39 39 39 39 38 38 37 37 37 36 36 36 36 36 36 36 37 37 37 37 38 38 38 38 38 39 39 39 39 39 39 39 39 39 39 39 39
23 23 23 23 23 23 23 23 24 24 24 25 26 27 29 30 32 33 35 36 36 36 35 35 35 35 33 32 31 30 29 28 26 26 28 32 35 37 36 35 34 36 39 40 40 39 39 40 40 40 39 39 38 38 37 37 36 36 35 35 35 35 35 35 36 36 36 37 37 37 38 38 38 38 38 39 39 39 39 39 39 39 39 40 40 40
22 22 22 22 22 21 21 22 22 23 23 25 26 28 30 31 33 34 34 34 32 31 31 30 31 31 31 31 30 29 29 28 27 26 28 31 34 36 36 34 33 35 37 40 40 39 38 39 40 39 39 38 38 37 36 36 35 34 34 34 34 34 34 35 35 36 36 37 37 38 38 38 38 39 39 39 39 39 39 39 39 39 40 40 40 41
21 21 21 21 21 21 21 22 22 24 24 25 26 27 28 29 30 31 31 30 28 28 28 29 31 32 32 30 29 29 29 28 27 27 27 29 32 34 35 34 33 34 36 38 39 39 39 39 39 39 38 38 37 36 35 34 33 33 33 33 33 34 34 35 36 36 37 38 38 39 39 39 39 39 39 39 39 39 39 39 39 39 39 40 40 41
21 21 21 21 21 21 22 23 24 25 26 26 26 25 25 26 26 27 28 27 27 27 27 28 29 30 31 30 30 30 30 29 28 26 25 26 29 31 33 34 34 35 36 38 40 40 39 38 37 37 36 36 35 34 33 33 33 33 33 34 34 35 36 37 37 38 39 39 39 39 39 39 39 39 39 39 39 39 39 39 39 39 39 39 40 40
21 21 21 22 22 23 24 25 26 26 26 25 25 24 23 23 24 25 26 26 26 26 27 27 28 29 30 31 32 32 30 28 25 23 23 25 28 31 34 34 34 34 36 38 40 41 39 37 35 33 33 33 33 33 34 34 35 35 36 37 37 37 37 38 38 38 39 39 39 39 39 39 39 39 39 39 39 38 38 38 38 38 38 39 39 40
22 22 23 23 24 25 25 26 26 26 25 25 24 23 23 23 23 23 24 24 25 25 27 27 28 28 30 31 32 31 29 27 24 22 24 27 30 33 34 34 34 34 34 35 37 38 39 38 35 32 32 33 33 34 36 36 37 37 38 38 38 38 38 38 38 38 38 38 38 38 38 38 38 38 38 38 38 38 38 37 37 37 38 38 39 40
24 24 25 25 25 25 25 26 26 26 25 25 24 24 23 23 23 23 23 23 23 24 26 27 28 28 28 29 30 29 29 29 27 26 26 29 32 34 34 35 35 34 32 32 32 34 36 40 40 37 34 34 35 37 38 37 36 36 37 38 38 38 38 37 37 38 38 38 38 38 38 38 38 38 38 38 38 38 37 37 36 36 37 38 39 40
25 25 25 25 26 26 26 26 26 26 25 25 24 24 24 23 23 23 23 23 23 24 25 28 29 29 29 29 30 31 32 33 31 30 28 30 32 34 34 34 35 34 33 33 33 33 34 38 42 42 39 38 37 38 38 36 35 36 37 38 38 38 38 37 37 37 38 38 37 37 37 37 37 37 38 38 37 37 37 37 36 36 37 38 39 40
25 25 25 25 26 26 26 26 26 26 25 25 25 24 24 24 24 24 23 23 23 23 25 27 29 30 31 31 32 34 35 34 33 31 29 31 33 34 35 34 35 36 36 36 35 35 36 38 41 43 42 40 39 37 36 36 36 37 37 37 38 38 38 37 37 37 37 37 37 37 38 37 37 38 38 38 38 37 37 37 37 36 37 38 39 40
25 25 25 25 26 26 26 26 26 26 25 25 25 25 25 25 24 24 24 24 23 23 24 26 28 30 31 33 34 36 36 35 33 31 30 31 34 36 37 35 35 36 37 37 36 36 38 39 40 40 40 42 41 39 37 36 36 36 36 36 37 37 37 37 37 37 37 37 37 38 38 38 38 38 38 38 37 37 37 37 37 36 36 37 38 39
26 26 26 26 26 26 26 26 26 25 25 25 25 25 25 25 25 25 25 24 24 24 24 25 26 28 30 32 35 37 38 36 34 31 30 32 34 36 37 37 37 37 38 38 37 38 39 40 41 41 41 42 42 41 39 36 35 35 35 35 36 36 37 38 38 38 38 38 38 39 39 39 38 39 39 38 38 38 38 37 37 37 37 37 38 38
26 26 26 26 26 26 26 26 26 26 25 25 25 25 25 25 25 25 25 24 24 23 24 24 25 26 27 30 33 35 37 36 34 32 31 32 33 35 37 39 39 39 39 40 40 40 41 42 42 42 42 42 41 41 41 37 35 34 35 36 37 37 38 39 39 38 39 39 40 40 40 39 39 39 39 39 39 38 38 38 38 38 38 38 38 39
26 26 26 26 26 26 26 26 26 26 25 25 25 25 25 25 26 25 25 24 24 24 24 25 25 26 27 28 30 33 35 35 34 33 32 32 33 35 38 40 40 39 39 41 43 44 44 43 43 43 42 41 41 41 41 40 39 38 39 39 38 39 40 40 40 40 40 40 41 41 40 40 39 39 40 40 39 39 39 39 39 38 38 38 39 39
25 26 26 25 25 25 26 26 25 25 25 25 26 26 26 26 25 25 25 25 24 25 25 26 27 28 28 29 30 32 33 34 34 34 33 33 34 35 37 40 41 40 40 41 42 43 44 42 42 42 42 43 43 43 43 42 41 41 42 41 41 40 41 40 39 39 40 40 40 40 40 40 39 39 40 39 39 39 39 39 39 39 38 38 39 39
25 25 25 25 25 25 25 25 25 25 25 26 26 26 26 26 26 25 25 25 25 26 26 27 28 29 30 31 31 32 33 34 34 34 34 34 34 35 36 39 41 42 42 43 42 42 42 42 43 44 45 45 46 46 45 43 42 42 43 42 42 41 40 37 36 36 37 38 39 39 40 40 40 40 40 40 40 40 40 39 39 39 39 38 38 38
25 25 25 24 24 24 24 24 25 25 25 26 26 27 27 27 26 26 26 26 26 26 27 28 29 30 31 32 32 33 33 34 34 34 34 34 34 35 36 38 40 42 43 44 43 42 42 44 46 46 45 45 46 47 47 46 44 42 42 42 41 41 40 38 37 37 38 38 39 40 41 41 41 41 42 41 40 40 40 39 40 40 39 39 39 38
24 24 24 24 24 24 24 24 25 25 26 26 27 27 26 26 26 26 27 27 27 27 28 28 29 31 32 33 33 33 33 34 34 34 35 35 34 35 36 37 39 41 43 44 44 43 42 43 45 46 45 45 47 48 48 47 45 43 42 42 42 42 43 42 41 40 40 40 40 40 40 40 40 40 41 40 40 40 40 40 40 40 40 39 39 39
24 24 24 24 24 24 25 25 25 25 25 26 26 25 25 24 25 25 27 28 28 28 28 29 30 32 33 33 34 33 34 34 34 34 34 34 34 35 36 37 39 40 42 43 43 42 43 44 44 44 44 45 47 47 47 47 46 44 42 41 42 43 43 42 40 38 37 37 38 39 39 39 39 40 40 41 41 41 41 41 41 40 40 40 40 40
23 24 24 25 25 25 25 25 25 25 25 25 25 25 24 24 24 25 26 28 29 29 29 29 30 31 33 35 35 35 35 34 34 34 34 34 34 34 35 37 38 39 40 41 43 45 46 46 45 44 45 44 45 46 47 48 47 44 42 41 41 41 41 41 40 39 37 37 38 38 39 39 39 40 41 41 42 42 42 41 40 39 38 39 40 40
23 24 24 25 25 25 25 25 25 24 25 25 25 24 24 23 24 25 26 27 28 29 30 30 30 31 33 35 36 36 36 36 35 34 34 33 34 34 36 37 38 39 40 40 42 44 45 45 44 42 42 43 44 45 46 47 46 46 44 42 41 41 42 42 42 41 40 39 39 39 39 39 40 41 41 41 41 41 41 40 40 39 39 39 39 40
24 24 24 25 25 25 24 24 24 24 24 24 24 24 23 23 24 25 26 27 28 29 29 30 30 31 32 33 35 36 37 37 36 35 35 34 35 35 36 37 38 38 39 39 40 42 43 43 43 43 44 45 46 46 46 46 46 46 45 44 42 42 42 42 42 41 40 39 39 39 39 39 39 40 41 42 42 41 40 40 40 40 40 40 40 40
23 23 24 24 24 24 23 24 24 24 24 24 24 23 23 24 24 25 26 27 28 29 30 30 30 31 32 34 35 37 38 39 38 38 37 37 37 37 37 37 37 37 37 38 39 40 41 42 44 45 45 46 47 46 45 45 45 45 44 44 42 42 42 43 43 42 41 40 39 39 39 38 38 38 40 41 41 41 41 41 41 41 41 41 41 41
22 22 22 23 23 23 23 23 23 23 23 24 24 24 24 24 25 26 26 27 27 28 29 30 30 31 32 33 34 35 37 38 39 40 40 40 40 39 38 37 37 37 37 38 39 40 42 43 44 45 44 45 46 48 47 46 44 43 43 43 43 42 42 43 42 41 40 40 40 40 39 38 38 39 40 40 41 41 40 40 39 39 39 40 40 40
21 22 22 22 22 22 22 22 22 22 23 24 24 25 24 25 25 26 27 28 28 29 29 30 31 32 33 34 34 35 36 38 40 40 41 41 41 41 40 39 38 38 39 40 40 41 41 42 42 42 42 43 46 47 48 46 43 42 43 42 42 43 42 42 42 41 40 40 40 40 39 39 38 39 39 40 40 40 40 39 39 38 38 38 38 39
21 21 21 21 21 21 21 21 22 22 23 24 25 26 26 26 26 26 27 28 29 29 30 31 32 33 33 34 35 35 36 38 39 40 41 41 42 41 40 40 40 40 41 41 40 40 40 40 40 40 39 39 41 44 46 46 44 43 42 41 41 42 43 43 42 41 41 40 40 40 40 39 39 38 38 39 40 41 41 40 40 39 38 38 38 38
20 20 20 20 20 20 21 21 21 22 23 24 25 27 27 27 27 28 28 28 29 29 30 31 32 33 34 35 36 36 37 38 39 40 40 41 42 41 41 41 40 40 41 41 40 39 39 39 38 37 35 33 34 37 41 43 44 43 41 40 40 40 41 40 41 41 40 38 39 39 39 39 39 38 38 39 40 41 41 41 40 39 39 38 38 38
19 19 19 19 19 20 20 21 21 22 23 24 26 27 28 28 28 29 29 29 29 30 31 31 32 33 34 36 36 36 37 38 39 40 40 41 42 42 42 41 40 40 40 41 41 39 37 36 36 36 34 32 30 30 34 38 40 40 40 39 39 39 40 40 40 40 39 38 38 38 39 39 39 39 39 38 39 39 40 40 40 39 39 38 37 37
Wind_Direction
310 313 315 315 316 316 316 318 319 318 317 316 316 315 313 312 311 310 311 310 310 308 306 305 304 303 301 300 299 298 297 296 296 295 294 294 294 294 294 294 294 294 294 294 293 293 292 291 290 290 289 288 287 287 286 285 284 284 283 282 281 280 280 279 279 279 280 280 281 281 281 282 282 282 282 282 281 281 281 281 281 280 280 279 278 277
313 314 316 317 318 318 319 321 323 323 322 321 320 319 317 316 315 315 315 316 316 316 315 314 312 311 310 310 309 308 308 307 306 305 304 304 304 304 304 303 303 303 302 301 300 299 298 297 296 295 294 293 292 291 290 289 288 286 285 284 283 282 281 281 280 279 279 279 279 279 279 279 280 280 280 280 279 279 279 279 278 278 278 278 278 277
316 317 318 320 321 322 323 325 326 326 326 325 324 323 322 321 320 320 321 321 321 321 321 320 320 319 318 318 318 317 317 316 315 314 314 313 313 312 312 311 310 308 307 306 305 304 303 302 300 299 298 297 296 295 293 292 291 289 288 287 286 285 284 283 282 281 280 279 279 279 278 278 278 278 278 278 277 277 277 276 276 276 276 277 277 278
319 321 322 322 324 325 327 329 329 329 328 328 327 326 326 325 325 325 325 325 324 324 324 324 324 324 324 324 323 323 323 322 321 321 320 319 318 317 316 315 314 313 311 310 309 308 307 306 305 303 302 300 299 298 296 295 294 292 291 290 289 287 286 285 284 283 282 281 280 279 279 278 278 278 277 277 276 276 275 275 275 274 274 275 275 276
322 324 324 325 326 327 330 331 332 332 331 330 329 329 328 328 327 327 327 326 326 326 326 326 327 328 327 327 327 326 326 325 324 324 323 322 321 320 319 318 317 316 315 314 313 312 311 309 308 307 305 304 302 301 300 299 297 296 295 294 292 291 290 288 287 286 284 283 282 281 280 280 279 278 278 277 276 275 275 274 273 273 273 273 273 274
323 325 326 327 327 328 331 333 334 334 333 332 330 330 330 329 328 328 328 328 328 327 327 328 329 329 329 328 328 328 327 326 326 325 324 323 322 322 321 320 319 318 318 317 316 315 314 312 311 310 309 307 306 305 304 303 302 300 299 298 297 295 294 293 291 290 288 287 285 284 283 282 281 280 279 278 277 276 275 274 273 272 272 272 272 272
324 325 326 327 327 329 332 334 336 337 336 333 331 330 330 330 330 330 330 330 329 328 328 328 328 328 328 328 327 327 326 326 325 325 324 324 323 323 322 321 320 320 319 318 318 317 316 315 314 313 312 311 310 310 309 307 306 305 304 302 301 300 298 297 295 293 292 290 288 287 285 284 283 282 281 280 279 278 277 276 275 274 273 272 271 271
322 324 325 326 328 329 331 333 336 336 335 333 331 330 330 330 331 330 330 329 329 328 328 327 327 326 326 326 326 326 326 325 325 325 324 324 323 323 322 321 320 320 319 319 318 318 317 317 316 316 315 314 314 313 312 311 310 308 307 306 304 303 301 300 298 296 294 293 291 289 287 286 284 283 282 281 280 279 278 277 276 275 274 273 272 272
320 323 325 327 328 329 329 331 334 335 334 333 331 330 330 331 330 330 329 328 327 326 326 325 324 324 324 324 325 325 325 325 324 324 324 323 323 322 321 321 320 320 320 319 319 318 318 318 318 317 317 316 315 315 314 313 312 311 309 308 307 305 303 302 300 298 297 295 293 291 289 287 286 284 283 281 280 279 278 278 277 276 275 274 273 272
321 323 325 326 326 326 326 328 331 334 333 333 331 330 329 329 329 328 326 325 324 324 323 323 322 322 322 323 323 324 324 324 324 323 323 322 322 321 321 321 320 320 320 319 319 319 318 318 318 318 318 317 317 316 315 314 313 312 311 309 308 307 305 303 301 300 298 296 294 292 291 289 287 285 283 282 280 279 278 278 277 277 276 275 274 273
320 322 323 323 324 325 325 327 330 333 333 332 330 329 328 326 325 324 322 321 321 321 321 320 319 319 320 322 323 324 324 324 324 323 323 322 321 321 321 321 321 320 320 319 319 318 319 319 319 319 318 318 318 317 316 315 314 313 312 311 309 308 306 305 303 302 300 298 297 295 293 291 289 287 285 283 282 280 279 279 278 278 277 276 275 274
317 319 321 322 323 325 325 327 330 331 330 329 327 325 324 322 320 318 316 316 317 318 319 319 318 318 319 322 323 325 325 325 324 323 322 322 322 322 321 321 320 320 319 319 318 318 319 319 319 319 318 318 318 317 317 316 315 314 313 311 310 309 308 307 306 304 303 302 300 299 297 295 294 292 289 287 285 284 282 281 280 279 278 278 277 276
316 318 320 321 322 323 324 326 326 326 325 323 321 319 317 316 315 314 313 313 314 316 317 318 318 319 320 322 324 326 326 325 324 322 321 320 320 320 320 319 318 318 317 317 317 317 318 318 318 318 318 318 318 317 317 316 315 314 313 312 311 310 309 309 308 306 305 304 303 301 300 298 297 295 293 292 290 288 286 284 283 282 281 280 279 279
316 318 319 318 318 320 321 322 321 319 318 316 314 312 312 313 313 313 313 314 315 317 318 318 317 319 321 323 325 326 326 324 322 320 318 317 317 318 318 317 316 315 315 314 314 315 317 317 316 317 317 317 317 317 316 315 314 314 313 312 311 310 309 308 307 306 304 303 301 300 299 297 296 295 293 292 291 289 288 286 285 284 283 282 282 281
315 316 316 315 314 315 316 316 315 313 312 310 310 311 312 313 314 316 317 317 318 319 319 318 318 318 319 321 324 325 324 322 319 317 315 314 315 315 315 314 313 313 313 312 312 313 315 315 314 315 315 315 315 315 315 314 313 312 311 310 309 308 306 305 303 302 300 299 297 296 295 294 293 291 290 289 289 288 287 286 286 285 284 283 282 282
313 312 310 310 309 310 311 310 308 307 306 308 310 312 313 315 317 319 319 318 318 319 319 318 318 317 317 319 321 323 322 319 315 313 312 311 312 313 313 312 310 310 310 310 310 311 313 313 313 313 313 313 313 313 312 311 310 309 308 306 305 303 302 300 299 298 297 296 295 294 293 292 291 289 288 287 286 285 284 284 283 282 282 281 281 281
309 307 305 304 303 303 306 306 304 305 307 310 313 315 316 317 318 318 317 317 317 317 316 316 315 315 315 317 318 319 319 316 313 310 309 308 309 311 311 309 308 308 309 309 309 310 311 311 311 311 310 310 310 309 308 307 306 304 303 302 301 300 299 298 298 297 296 296 295 294 292 291 290 289 287 286 284 283 282 281 280 280 280 279 279 279
303 301 300 298 298 300 304 306 307 309 312 315 317 318 317 317 316 316 314 314 314 314 313 313 311 310 310 310 312 315 315 313 310 308 307 306 307 309 311 309 308 307 308 307 308 309 309 309 308 308 307 307 306 305 304 303 302 302 301 300 300 299 299 299 298 298 297 296 295 294 292 291 289 288 286 285 283 282 281 280 279 279 278 278 278 277
297 296 295 295 298 302 305 308 310 313 315 317 317 316 315 315 315 315 314 314 313 311 309 308 306 305 304 304 306 309 310 309 307 306 305 304 306 309 311 310 308 307 306 306 307 308 308 307 306 306 305 304 303 303 302 302 301 301 300 299 299 299 299 298 298 297 297 296 295 293 292 290 289 288 286 285 284 283 282 281 280 279 278 278 277 277
293 294 295 298 302 305 307 309 312 314 316 316 316 315 315 315 315 314 313 312 310 309 307 305 303 302 302 302 303 306 307 307 306 305 304 304 305 308 310 310 309 307 306 305 306 307 306 305 305 304 303 303 302 302 302 301 300 300 299 298 298 298 298 297 297 297 296 295 294 293 292 291 289 288 287 286 285 284 283 282 281 280 279 278 278 277
293 296 300 303 305 306 308 311 313 315 317 318 317 316 316 317 316 313 311 310 308 306 304 302 300 299 299 299 300 303 306 306 306 305 305 305 305 307 309 310 308 306 304 304 305 305 305 304 304 303 302 302 302 301 301 300 299 298 298 297 297 297 296 296 296 296 295 295 294 293 292 291 289 288 287 286 285 285 284 283 282 281 280 279 278 277
296 300 304 306 307 308 309 312 315 317 317 319 318 316 317 316 314 311 309 307 305 303 301 298 297 296 296 297 298 302 306 306 306 306 305 303 303 305 309 308 306 303 302 303 304 305 305 304 303 302 302 301 301 300 299 298 298 297 296 296 295 295 295 295 295 294 294 293 292 291 290 289 288 287 286 286 285 284 283 282 281 281 280 279 278 278
300 303 306 309 310 311 313 315 316 317 318 319 318 315 314 312 309 306 304 302 300 298 296 295 295 295 296 297 300 304 307 307 307 305 303 299 300 303 307 306 304 302 301 303 305 306 305 304 302 301 301 300 300 299 299 298 297 296 295 295 294 294 293 293 292 292 292 291 290 289 288 287 287 286 285 285 284 283 283 282 281 280 280 279 279 278
302 304 307 309 311 313 314 314 315 317 317 316 313 309 306 302 299 296 295 294 293 293 294 296 297 298 300 301 303 305 306 308 308 305 300 297 298 301 305 306 305 303 303 304 305 305 304 303 302 301 300 300 299 299 298 297 297 296 294 293 293 292 292 291 291 291 290 290 289 288 287 286 286 285 284 284 283 283 282 282 281 280 280 279 279 278
302 304 306 309 311 311 311 310 310 310 309 305 301 297 294 292 290 289 289 291 292 295 298 300 301 301 302 304 304 305 306 308 307 304 300 297 298 301 304 306 305 304 304 305 306 305 303 302 301 301 300 299 299 299 298 297 296 295 294 293 292 292 291 291 290 289 289 288 287 287 286 285 284 284 283 283 282 282 281 281 280 280 279 278 278 277
301 303 305 307 308 307 304 301 300 300 299 295 293 291 291 291 292 292 293 295 298 301 303 302 301 300 302 304 304 304 307 309 307 304 301 299 299 301 304 306 306 304 303 304 305 304 303 301 301 301 300 300 299 299 299 298 297 296 295 294 293 292 291 290 289 288 287 286 286 285 285 284 283 283 282 282 281 281 280 280 279 279 278 278 277 276
301 303 305 306 306 303 300 299 299 300 299 298 297 296 296 296 297 298 299 301 303 304 303 302 301 302 304 304 304 304 307 308 307 306 305 302 300 300 302 305 306 305 303 303 304 304 302 300 300 300 300 301 301 301 300 300 299 297 295 293 292 291 289 289 288 287 286 286 285 285 284 283 283 282 282 281 281 280 280 279 279 279 278 278 277 276
303 306 307 307 305 303 303 304 305 305 305 305 304 302 300 299 299 299 300 303 306 305 303 301 301 302 303 303 303 304 306 306 308 309 308 304 299 297 301 304 305 305 305 304 304 304 302 300 300 301 301 302 302 301 300 299 297 295 293 292 291 289 288 288 288 287 287 286 286 285 285 284 283 283 282 282 281 281 280 280 280 279 279 279 278 277
307 309 308 307 306 306 307 308 308 308 308 307 306 304 301 300 300 300 303 307 308 307 304 302 301 300 301 302 303 304 304 305 308 311 309 304 299 298 302 305 306 306 307 307 307 306 303 301 301 302 302 302 301 299 297 297 295 294 294 293 292 291 290 290 289 288 288 287 286 286 285 285 284 283 283 282 282 281 281 280 280 280 279 279 278 277
309 308 307 307 307 308 309 309 309 308 308 307 305 304 303 303 304 306 308 311 310 308 305 302 299 299 300 302 304 303 302 304 307 309 307 304 301 301 305 305 306 306 307 308 308 307 305 304 303 302 302 301 299 297 297 297 297 296 296 295 294 293 293 292 290 289 289 288 287 286 286 285 284 283 283 282 281 281 280 280 279 279 278 277 277 276
309 309 308 309 309 309 309 309 308 308 308 307 306 306 307 308 309 311 313 313 310 307 304 300 299 298 298 299 300 299 298 302 305 308 307 305 303 303 305 305 304 305 306 306 305 305 304 304 304 304 303 301 299 299 299 299 299 298 297 296 295 294 294 293 292 291 290 289 288 287 286 285 284 283 282 282 281 280 279 278 278 277 276 275 275 274
310 310 310 309 309 309 309 309 309 308 308 308 309 310 311 312 313 314 314 312 308 304 301 299 298 297 295 294 292 291 293 299 304 308 309 306 303 302 304 304 303 303 303 302 299 297 297 299 302 304 304 302 301 300 300 299 298 297 297 296 295 294 293 293 291 290 289 289 288 286 285 284 283 282 282 281 280 279 278 277 276 275 274 273 273 272
309 308 308 309 309 309 309 309 309 308 309 310 312 313 315 316 316 315 313 310 306 302 298 296 296 296 295 293 291 290 292 297 303 308 309 305 302 302 303 302 302 302 302 301 298 295 292 293 297 301 302 301 301 300 299 298 297 296 295 294 294 293 293 292 291 289 289 288 287 286 286 285 283 282 281 280 279 278 277 276 275 273 272 271 270 271
307 307 308 309 309 309 309 308 309 309 311 313 315 317 317 317 317 315 313 310 306 302 298 295 294 294 295 294 294 293 295 299 305 309 309 306 303 302 302 301 301 301 302 301 300 297 294 293 295 298 299 300 300 299 298 298 297 296 295 294 293 293 292 292 291 290 289 288 287 286 286 285 284 283 281 280 279 277 277 276 274 272 270 269 268 269
306 307 308 309 309 309 309 309 310 312 314 316 318 318 318 318 316 315 313 311 308 304 300 297 295 294 294 294 294 295 298 303 309 311 311 307 303 302 301 299 299 299 300 300 299 298 296 295 296 297 297 298 298 298 298 298 297 296 295 294 293 292 291 291 290 289 289 288 286 285 285 284 283 282 281 280 279 278 277 276 274 272 271 269 267 267
305 306 308 308 308 309 309 311 313 315 317 318 319 319 318 317 316 315 314 312 309 307 304 302 300 298 296 295 294 295 299 305 310 313 312 309 305 301 298 297 298 298 297 296 296 295 294 295 296 297 296 296 297 298 299 299 298 296 294 293 292 291 290 290 289 289 287 286 285 284 284 283 282 281 281 281 280 279 278 277 275 273 271 269 267 266
305 306 307 307 308 310 312 314 316 318 319 320 319 318 318 317 316 316 315 313 312 310 309 308 306 304 302 300 298 298 302 307 312 314 314 312 308 303 297 296 297 296 293 292 292 293 293 295 296 296 296 295 295 297 299 300 299 296 294 294 293 292 291 290 289 289 287 285 284 283 283 282 281 281 281 281 281 280 278 277 275 273 271 270 268 266
304 305 306 308 310 312 315 316 318 318 319 319 319 318 318 318 317 317 316 315 315 314 313 312 312 310 308 307 305 305 307 310 313 315 316 314 310 304 298 296 296 295 293 291 290 290 290 291 292 293 294 294 295 295 296 297 297 296 295 295 293 292 290 289 289 288 287 285 284 283 283 282 281 281 281 281 280 279 278 276 275 274 272 271 269 267
303 305 307 310 312 314 316 317 318 318 319 319 319 319 319 320 320 319 319 318 318 317 316 315 314 313 311 310 309 309 309 311 313 315 315 313 310 306 300 297 295 295 295 293 291 288 286 287 287 287 290 293 295 295 295 295 295 295 295 295 294 292 290 289 289 287 286 285 284 283 282 282 282 281 280 280 279 278 277 275 275 274 273 271 270 269
304 306 309 312 314 315 316 317 318 319 320 320 320 321 321 322 322 322 321 321 320 319 319 317 315 313 312 311 310 310 310 311 313 314 314 313 310 307 302 297 295 296 296 295 291 288 285 284 284 284 286 289 291 292 294 294 294 293 294 294 293 292 292 291 289 287 286 284 283 282 282 281 281 280 280 279 277 276 275 275 274 274 273 271 270 269
306 308 310 313 315 317 318 319 319 320 321 321 321 322 324 326 326 325 323 322 321 320 319 317 315 313 312 310 310 310 311 312 313 313 313 312 310 307 303 298 296 296 295 294 291 288 285 284 284 284 285 287 287 289 291 292 292 293 293 292 291 291 292 291 290 288 286 285 283 282 282 281 280 280 279 278 277 277 276 275 274 274 273 271 269 267
307 309 312 314 316 318 319 320 320 321 321 321 322 324 327 329 328 325 323 322 320 319 318 316 314 313 311 310 310 311 312 312 312 312 312 311 309 307 304 300 298 297 296 293 290 288 286 286 285 285 285 286 287 289 290 291 292 292 291 290 290 291 292 291 289 288 286 285 284 283 282 282 281 280 279 279 278 278 277 276 275 274 272 270 268 266
308 311 314 316 318 319 320 321 321 320 320 321 322 325 328 331 330 326 322 319 318 318 318 318 316 313 310 310 311 312 313 313 313 312 311 310 309 307 304 302 301 299 297 293 291 289 289 288 287 286 286 287 288 288 288 290 292 291 290 289 290 291 291 290 290 289 287 286 285 284 283 282 281 281 280 280 279 278 278 276 275 273 271 269 268 266
310 314 316 318 319 320 320 320 320 319 320 321 324 327 330 331 330 327 322 319 318 319 320 318 317 314 311 310 311 312 313 313 313 312 310 309 308 308 306 305 303 301 299 294 291 290 291 290 288 287 288 289 288 288 288 289 290 290 290 290 289 287 286 287 288 289 288 286 285 284 283 282 282 282 281 280 279 278 277 276 274 273 271 269 268 266
313 316 317 318 319 319 319 319 319 319 321 323 325 328 331 331 330 328 324 321 319 319 319 318 317 314 311 310 310 311 312 312 313 313 312 311 310 310 308 306 304 302 299 296 293 292 291 290 290 291 292 291 289 288 288 288 289 289 290 289 288 287 285 285 286 286 286 285 284 284 283 283 283 282 282 281 279 278 277 276 275 274 273 271 269 267
315 317 318 318 318 318 319 319 320 321 323 324 326 329 331 332 331 329 325 322 319 318 318 318 316 312 310 310 311 312 312 313 313 313 313 313 312 312 310 307 305 302 300 298 296 295 293 292 292 293 294 292 290 288 287 287 287 288 288 288 288 287 287 286 285 285 285 285 284 285 285 285 283 282 280 280 279 279 278 277 276 275 274 273 272 270
316 318 318 318 318 318 319 320 322 324 325 326 327 329 332 333 332 328 325 322 320 318 317 317 315 312 310 310 310 310 311 311 311 311 312 313 314 314 312 309 306 304 302 300 299 298 296 295 294 294 292 291 290 289 289 288 287 286 287 288 288 288 287 286 286 286 285 285 284 285 286 285 283 281 280 280 280 279 279 278 276 275 275 274 273 272
316 317 317 318 318 320 322 324 326 327 327 327 328 330 332 333 331 326 324 323 321 319 317 316 314 312 311 310 309 309 309 309 309 309 311 311 313 313 312 310 309 307 305 303 302 300 298 297 295 294 292 289 288 288 289 289 288 286 286 286 287 287 286 286 286 287 286 286 285 285 285 284 282 280 280 280 280 279 278 278 277 276 275 273 272 271
316 317 317 319 321 323 326 328 328 329 329 328 328 329 330 332 330 326 324 323 322 320 318 316 315 313 311 310 309 309 309 309 309 309 310 311 312 312 311 311 310 309 307 306 304 303 301 299 297 295 292 289 287 287 288 289 289 288 287 287 286 286 286 286 286 287 287 286 286 286 285 283 281 280 279 278 277 277 278 278 277 277 275 274 272 271
315 317 318 321 324 327 329 330 331 331 330 328 328 328 328 329 329 328 326 324 322 320 318 316 314 312 310 310 310 310 310 309 309 310 311 312 312 312 311 311 311 311 310 309 307 306 305 303 301 298 294 291 287 286 287 289 290 290 288 286 285 285 285 285 286 286 286 285 285 285 284 282 281 279 278 276 275 276 277 277 277 277 276 275 273 272
316 319 321 324 327 330 331 331 332 331 330 329 328 327 326 326 326 326 326 324 322 319 317 315 313 311 309 309 309 310 310 309 308 308 310 311 311 311 311 311 312 312 311 310 310 309 308 306 304 302 299 296 291 287 286 287 288 288 287 286 285 285 285 284 285 285 286 285 285 284 283 281 280 278 276 274 273 274 275 275 275 276 277 276 274 272